Back to catalog

STARLINK-4265

AliveCommunicationsVLEO
NORAD 53011·PAYLOAD·🇺🇸 United States

Launched Jul 7, 2022 from Cape Canaveral Space Force Station

Loading…

Next Passes (next 24 hours)

TLE

FreshSource: CelesTrak SupGP

Epoch: Sep 14, 2026, 14:40 UTC

1 53011C 22076AB  26257.61159722  .00020420  00000+0  60321-3 0  2571
2 53011  53.1594 308.9211 0001316  69.1781 342.2630 15.34385663    11

Track STARLINK-4265 in real time with AllMySat

Download on the App Store